O'Neill, NE

2:14 AM CDT on April 20, 2018 (GMT -0500)
The O'Neill Municipal-Baker

Weather History for KONL - September, 2012

Change the Weather History Date:

Thursday, September 6, 2012

  Actual Average Record
Temperature  
Mean Temperature 72 °F -  
Max Temperature 95 °F 84 °F 101 °F (1970)
Min Temperature 50 °F 55 °F 31 °F (1956)
Cooling Degree Days 7    
Growing Degree Days 22 (Base 50)    
Moisture  
Dew Point 44 °F    
Average Humidity 41    
Maximum Humidity 75    
Minimum Humidity 17    
Precipitation  
Precipitation 0.00 in - - ()
Sea Level Pressure  
Sea Level Pressure 29.90 in    
Wind  
Wind Speed 10 mph (South)    
Max Wind Speed 28 mph    
Max Gust Speed 36 mph    
Visibility 10 miles    
Events      
Averages and records for this station are not official NWS values.
T = Trace of Precipitation, MM = Missing Value Source: NWS Daily Summary

Daily Weather History Graph

Daily Weather History Graph

Search for Another Location

Airport or City:

Astronomy

Sep. 06, 2012 Rise Set
Actual Time 7:05 AM CDT 7:59 PM CDT
Civil Twilight 6:37 AM CDT 8:27 PM CDT
Nautical Twilight 6:02 AM CDT 9:01 PM CDT
Astronomical Twilight 5:27 AM CDT 9:37 PM CDT
Moon 11:02 PM CDT (9/6) 1:14 PM CDT (9/6)
Length of Visible Light 13h 50m
Length of Day
12h 53m
Waning Gibbous, 67% of the Moon is Illuminated
Sep 6
Waning Gibbous
Sep 8
Last Quarter
Sep 15
New
Sep 22
First Quarter
Sep 29
Full

Hourly Weather History & Observations

Time (CDT) Temp. Dew Point Humidity Pressure Visibility Wind Dir Wind Speed Gust Speed Precip Events Conditions
12:15 AM 60.1 °F 42.1 °F 51% 30.00 in 10.0 mi SE 5.8 mph - N/A   Clear
12:35 AM 58.1 °F 42.4 °F 56% 30.00 in 10.0 mi SSE 3.5 mph - N/A   Clear
12:55 AM 52.3 °F 43.0 °F 70% 30.00 in 10.0 mi South 3.5 mph - N/A   Clear
1:15 AM 50.4 °F 42.8 °F 75% 30.00 in 10.0 mi South 5.8 mph - N/A   Clear
1:55 AM 53.6 °F 41.7 °F 64% 30.00 in 10.0 mi SSE 3.5 mph - N/A   Clear
2:15 AM 54.5 °F 41.5 °F 62% 30.00 in 10.0 mi SE 3.5 mph - N/A   Clear
2:35 AM 54.3 °F 41.2 °F 61% 29.99 in 10.0 mi SSE 4.6 mph - N/A   Clear
2:55 AM 54.5 °F 41.0 °F 60% 29.99 in 10.0 mi SSE 3.5 mph - N/A   Clear
3:15 AM 55.0 °F 40.6 °F 58% 29.99 in 10.0 mi South 3.5 mph - N/A   Clear
3:35 AM 55.0 °F 40.3 °F 58% 29.99 in 10.0 mi South 3.5 mph - N/A   Clear
3:55 AM 53.4 °F 40.8 °F 62% 29.99 in 10.0 mi SE 3.5 mph - N/A   Clear
4:15 AM 54.0 °F 40.5 °F 60% 29.99 in 10.0 mi SSE 3.5 mph - N/A   Clear
4:35 AM 53.8 °F 40.3 °F 60% 29.99 in 10.0 mi SSE 5.8 mph - N/A   Clear
4:55 AM 53.1 °F 40.5 °F 62% 29.98 in 10.0 mi SE 5.8 mph - N/A   Clear
5:15 AM 52.5 °F 39.9 °F 62% 29.98 in 10.0 mi SE 5.8 mph - N/A   Clear
5:35 AM 52.7 °F 40.1 °F 62% 29.99 in 10.0 mi SSE 5.8 mph - N/A   Clear
5:55 AM 52.0 °F 40.1 °F 64% 29.98 in 10.0 mi SE 5.8 mph - N/A   Clear
6:15 AM 52.9 °F 40.1 °F 62% 29.98 in 10.0 mi SE 6.9 mph - N/A   Clear
6:35 AM 52.7 °F 39.6 °F 61% 29.98 in 10.0 mi SSE 6.9 mph - N/A   Clear
6:55 AM 52.0 °F 39.6 °F 63% 29.98 in 10.0 mi SSE 6.9 mph - N/A   Clear
7:15 AM 52.0 °F 39.6 °F 63% 29.98 in 10.0 mi SE 6.9 mph - N/A   Clear
7:35 AM 53.6 °F 39.6 °F 59% 29.97 in 10.0 mi SE 8.1 mph - N/A   Clear
7:55 AM 55.0 °F 40.1 °F 57% 29.97 in 10.0 mi SE 10.4 mph - N/A   Clear
8:15 AM 56.8 °F 40.5 °F 54% 29.97 in 10.0 mi SE 10.4 mph 16.1 mph N/A   Clear
8:35 AM 60.4 °F 40.3 °F 47% 29.96 in 10.0 mi SSE 11.5 mph - N/A   Clear
8:55 AM 63.1 °F 40.1 °F 43% 29.95 in 10.0 mi SSE 12.7 mph 16.1 mph N/A   Clear
9:15 AM 65.8 °F 39.9 °F 39% 29.95 in 10.0 mi SSE 12.7 mph - N/A   Clear
9:35 AM 69.1 °F 39.4 °F 34% 29.95 in 10.0 mi SSE 21.9 mph 25.3 mph N/A   Clear
9:55 AM 71.1 °F 39.9 °F 32% 29.93 in 10.0 mi SSE 17.3 mph 25.3 mph N/A   Clear
10:15 AM 72.3 °F 40.1 °F 31% 29.93 in 10.0 mi SSE 16.1 mph 24.2 mph N/A   Clear
10:35 AM 74.5 °F 40.5 °F 29% 29.93 in 10.0 mi SSE 19.6 mph 25.3 mph N/A   Clear
10:55 AM 76.3 °F 40.5 °F 28% 29.93 in 10.0 mi SSE 16.1 mph 25.3 mph N/A   Clear
11:15 AM 78.1 °F 40.5 °F 26% 29.91 in 10.0 mi SSE 25.3 mph 31.1 mph N/A   Clear
11:35 AM 79.5 °F 42.1 °F 26% 29.89 in 10.0 mi South 21.9 mph 35.7 mph N/A   Clear
11:55 AM 79.5 °F 42.6 °F 27% 29.88 in 10.0 mi SSE 25.3 mph 35.7 mph N/A   Clear
12:15 PM 81.5 °F 43.5 °F 26% 29.87 in 10.0 mi South 24.2 mph 35.7 mph N/A   Clear
12:35 PM 82.4 °F 44.2 °F 26% 29.86 in 10.0 mi SSE 25.3 mph 34.5 mph N/A   Clear
12:55 PM 82.9 °F 45.5 °F 27% 29.85 in 10.0 mi South 27.6 mph 34.5 mph N/A   Clear
1:15 PM 84.2 °F 46.0 °F 26% 29.84 in 10.0 mi South 20.7 mph 31.1 mph N/A   Clear
1:35 PM 87.1 °F 48.2 °F 26% 29.83 in 10.0 mi South 19.6 mph 31.1 mph N/A   Clear
1:55 PM 87.4 °F 48.9 °F 26% 29.82 in 10.0 mi South 23.0 mph 29.9 mph N/A   Clear
2:15 PM 88.7 °F 49.5 °F 26% 29.81 in 10.0 mi SSW 21.9 mph 29.9 mph N/A   Clear
2:35 PM 90.1 °F 49.5 °F 25% 29.81 in 10.0 mi SW 19.6 mph 26.5 mph N/A   Clear
2:55 PM 91.0 °F 49.8 °F 24% 29.80 in 10.0 mi SSW 18.4 mph 34.5 mph N/A   Clear
3:15 PM 92.7 °F 50.7 °F 24% 29.79 in 10.0 mi SSW 13.8 mph 26.5 mph N/A   Clear
3:35 PM 93.6 °F 47.3 °F 20% 29.78 in 10.0 mi SW 13.8 mph 23.0 mph N/A   Clear
3:55 PM 92.8 °F 45.5 °F 20% 29.78 in 10.0 mi West 11.5 mph 16.1 mph N/A   Clear
4:15 PM 94.6 °F 44.4 °F 18% 29.77 in 10.0 mi WSW 15.0 mph 21.9 mph N/A   Clear
4:35 PM 94.1 °F 45.1 °F 19% 29.76 in 10.0 mi WNW 12.7 mph 20.7 mph N/A   Clear
4:55 PM 93.4 °F 41.9 °F 17% 29.76 in 10.0 mi WNW 15.0 mph - N/A   Clear
5:15 PM 92.7 °F 42.8 °F 18% 29.77 in 10.0 mi NW 13.8 mph 18.4 mph N/A   Clear
5:35 PM 91.0 °F 42.6 °F 19% 29.78 in 10.0 mi NW 13.8 mph - N/A   Clear
5:55 PM 90.1 °F 42.8 °F 19% 29.78 in 10.0 mi NW 13.8 mph 18.4 mph N/A   Clear
6:15 PM 89.4 °F 44.4 °F 21% 29.78 in 10.0 mi NW 10.4 mph - N/A   Clear
6:35 PM 87.4 °F 45.9 °F 24% 29.79 in 10.0 mi NW 9.2 mph 17.3 mph N/A   Clear
6:55 PM 85.3 °F 46.0 °F 25% 29.80 in 10.0 mi NW 8.1 mph - N/A   Clear
7:15 PM 82.9 °F 47.7 °F 29% 29.80 in 10.0 mi NW 8.1 mph - N/A   Clear
7:35 PM 78.3 °F 48.9 °F 36% 29.80 in 10.0 mi NW 6.9 mph - N/A   Clear
7:55 PM 77.5 °F 48.2 °F 35% 29.82 in 10.0 mi NNW 10.4 mph - N/A   Clear
8:15 PM 77.0 °F 45.1 °F 32% 29.83 in 10.0 mi NNW 11.5 mph 17.3 mph N/A   Clear
8:35 PM 73.6 °F 45.0 °F 36% 29.83 in 10.0 mi NNW 11.5 mph - N/A   Clear
8:55 PM 71.6 °F 45.7 °F 39% 29.84 in 10.0 mi NNW 11.5 mph - N/A   Clear
9:15 PM 71.1 °F 45.5 °F 40% 29.85 in 10.0 mi NNW 10.4 mph - N/A   Clear
9:35 PM 69.1 °F 46.0 °F 44% 29.86 in 10.0 mi NNW 9.2 mph - N/A   Clear
9:55 PM 68.9 °F 46.6 °F 45% 29.87 in 10.0 mi NW 10.4 mph - N/A   Clear
10:15 PM 68.0 °F 46.8 °F 47% 29.87 in 10.0 mi NNW 12.7 mph - N/A   Clear
10:35 PM 68.0 °F 46.6 °F 46% 29.88 in 10.0 mi NNW 11.5 mph - N/A   Clear
10:55 PM 68.0 °F 46.4 °F 46% 29.88 in 10.0 mi NNW 11.5 mph - N/A   Clear
11:15 PM 67.3 °F 47.7 °F 49% 29.89 in 10.0 mi NNW 11.5 mph - N/A   Clear
11:35 PM 68.0 °F 47.8 °F 48% 29.90 in 10.0 mi NNW 11.5 mph - N/A   Clear
11:55 PM 67.1 °F 48.4 °F 51% 29.90 in 10.0 mi North 12.7 mph - N/A   Clear